Regional Weather Roundup
Issued by NWS

Home | Current Version | Previous Version | Graphics & Text | Print | Product List | Glossary On
Versions: 1 2 3 4 5 6 7 8 9 10 11 12 13 14 15 16 17 18 19 20 21 22 23 24 25 26 27 28 29 30 31 32 33 34 35 36 37 38 39 40 41 42 43 44 45 46 47 48 49 50
000
ASUS43 KLOT 281200
RWRIL

ILLINOIS REGIONAL WEATHER ROUNDUP
NATIONAL WEATHER SERVICE CHICAGO/ROMEOVILLE IL
600 AM CST SUN DEC 28 2014

NOTE: "FAIR" INDICATES FEW OR NO CLOUDS BELOW 12,000 FEET WITH NO
SIGNIFICANT WEATHER AND/OR OBSTRUCTIONS TO VISIBILITY.

* THESE STATIONS ARE NOT UNDER NWS QUALITY CONTROL. THEY ALSO MAY NOT
  REPORT WEATHER SUCH AS PRECIPITATION OR FOG.

ILZ001-002-007-009-015-016-024-281300-
NORTHWEST ILLINOIS

CITY           SKY/WX    TMP DP  RH WIND       PRES   REMARKS
MOLINE         PTCLDY    18  14  84 SW5       30.19F WCI  11
6HR MIN TEMP:  18; 6HR MAX TEMP:  24;

STERLING*      CLEAR     19  14  79 W8        30.18S WCI   9
$$

ILZ003-004-008-010-011-017-018-281300-
NORTH CENTRAL ILLINOIS

CITY           SKY/WX    TMP DP  RH WIND       PRES   REMARKS
ROCKFORD       CLEAR     20  14  77 W6        30.18R WCI  12
6HR MIN TEMP:  20; 6HR MAX TEMP:  28;

DE KALB*       PTCLDY    20  17  90 W8        30.15S WCI  10
$$

ILZ005-006-012>014-019>023-281300-
NORTHEAST ILLINOIS

CITY           SKY/WX    TMP DP  RH WIND       PRES   REMARKS
CHICAGO-OHARE  PTCLDY    23  18  81 W7        30.15R WCI  15
6HR MIN TEMP:  23; 6HR MAX TEMP:  31;

CHICAGO-MIDWAY PTCLDY    27  20  75 W7        30.15R WCI  19
6HR MIN TEMP:  27; 6HR MAX TEMP:  33;

AURORA         PTCLDY    23  18  81 W10       30.17R WCI  12
6HR MIN TEMP:  23; 6HR MAX TEMP:  31;

WAUKEGAN       CLEAR     23  18  81 VRB5      30.13R WCI  17
6HR MIN TEMP:  23; 6HR MAX TEMP:  30;

DUPAGE AIRPORT PTCLDY    23  18  81 W8        30.15R WCI  14
6HR MIN TEMP:  23; 6HR MAX TEMP:  30;

WHEELING       CLEAR     24  18  77 W6        30.16R WCI  17
6HR MIN TEMP:  23; 6HR MAX TEMP:  31;

NORTHERLY ISL    N/A     27  20  75 W6          N/A  WCI  21
$$

LMZ740>746-281300-
SOUTHERN LAKE MICHIGAN

STATION/POSITION SKY/WX   TEMP    WIND        PRES    VSBY  WAVE
                          AIR SEA DIR/SP/G                  HT/PER
                          (F)     (DEG/KT/KT) (MB)    (MI)  (FT/S)
WAUKEGAN HARBOR            26     280/  3/ 10   N/A
HARRISON CRIB              27     270/ 12/ 14   N/A
BURNHAM HARBOR             27     270/  6/ 12   N/A
CALUMET HARBOR             28     260/  5/  9 1019.5R
MICHIGAN CITY              31     270/ 13/ 16   N/A
$$

ILZ025>027-034>036-040-047-049-050-058-095>099-281300-
WEST-CENTRAL ILLINOIS

CITY           SKY/WX    TMP DP  RH WIND       PRES   REMARKS
QUINCY         CLOUDY    27  21  78 W6        30.21S WCI  20
$$

ILZ028>032-037-038-041>044-048-051>054-059>061-281300-
CENTRAL ILLINOIS

CITY           SKY/WX    TMP DP  RH WIND       PRES   REMARKS
DECATUR        CLOUDY    28  23  81 NW10      30.20S WCI  19
PEORIA         PTCLDY    24  18  77 NW5       30.20F WCI  18
6HR MIN TEMP:  24; 6HR MAX TEMP:  30;

SPRINGFIELD    CLOUDY    29  22  75 NW6       30.20F WCI  23
6HR MIN TEMP:  29; 6HR MAX TEMP:  32;

TAYLORVILLE    NOT AVBL
$$

ILZ033-039-045-046-055>057-062-063-281300-
EAST-CENTRAL ILLINOIS

CITY           SKY/WX    TMP DP  RH WIND       PRES   REMARKS
CHAMPAIGN      CLOUDY    28  23  81 NW14      30.18S WCI  17
MATTOON        CLOUDY    29  25  85 N12       30.18S WCI  19
$$

ILZ079-100>102-281300-
SOUTHWEST ILLINOIS

CITY           SKY/WX    TMP DP  RH WIND       PRES   REMARKS
BELLEVILLE     CLOUDY    32  27  83 NW10      30.20F WCI  24
CAHOKIA*       CLOUDY    33  26  75 N9        30.22S WCI  25
$$

ILZ064>066-069>071-074>076-080>082-084>086-088>090-092>094-281300-
SOUTH-CENTRAL ILLINOIS

CITY           SKY/WX    TMP DP  RH WIND       PRES   REMARKS
CARBONDALE     CLOUDY    33  27  78 N6        30.20S WCI  28
6HR MIN TEMP:  33; 6HR MAX TEMP:  37;

MT. VERNON     CLOUDY    32  25  74 N3        30.19F
$$

ILZ067-068-072-073-078-083-087-091-281300-
SOUTHEAST ILLINOIS

CITY           SKY/WX    TMP DP  RH WIND       PRES   REMARKS
LAWRENCEVILLE  CLOUDY    33  29  85 NW9       30.20R WCI  25
$$

ABBREVIATIONS USED IN REMARKS
   TC - TEMPERATURE IN CELSIUS
  WCI - WIND CHILL INDEX
   HX - HEAT INDEX
  VSB - VISIBILITY
$$




USA.gov is the U.S. government's official web portal to all federal, state and local government web resources and services.